Location: Asheville, NC
(35.6000°N, 82.5500°W)
Time: 17:06:07
(UTC-04:00)

Vanguard 1 - Pass Details

Date: 14 March 2018
Orbit: 650 x 3833 km, 34.3° (Epoch: 17 June)

Event Time Altitude Azimuth Distance (km) Brightness Sun altitude
Rises 08:07:41 0° 216° (SW) 6,481 14.0 4.3°
Reaches altitude 10° 08:11:42 10° 210° (SSW) 5,820 13.8 5.1°
Maximum altitude 08:30:17 49° 142° (SE) 4,426 14.0 8.9°
Drops below altitude 10° 08:51:38 10° 77° (ENE) 6,646 15.7 13.1°
Sets 08:56:33 0° 73° (ENE) 7,426 15.6 14.1°
